F5MAP-5 Weather Reports


Display with metric or nautical units.
time (UTC)temp
F
wind
direction
speed
MPH
gust
MPH
rain 1hr
in
rain 24hr
in
rain mn
in
humidity
%
barometer
mb
20260505195212 57 219 4.0 8.0 0.00 0.00 0.00 85 1008.7
20260505194211 57 197 5.0 10.0 0.00 0.00 0.00 85 1008.5
20260505193213 58 240 6.0 10.0 0.00 0.00 0.00 85 1008.6
20260505192212 58 219 5.0 8.0 0.00 0.00 0.00 84 1008.5
20260505191211 58 223 6.0 10.0 0.00 0.00 0.00 84 1008.4
20260505190212 58 223 6.0 11.0 0.00 0.00 0.00 84 1008.2
20260505185211 59 229 8.0 12.0 0.00 0.00 0.00 84 1008.2
20260505184211 60 222 6.0 12.0 0.00 0.00 0.00 85 1008.2
20260505183211 60 203 5.0 10.0 0.00 0.00 0.00 85 1008.1
20260505182211 60 220 6.0 10.0 0.00 0.00 0.00 84 1007.9
20260505181211 60 186 5.0 13.0 0.00 0.00 0.00 82 1007.8
20260505180211 61 212 5.0 12.0 0.00 0.00 0.00 83 1007.9
20260505175211 61 195 5.0 12.0 0.00 0.00 0.00 83 1007.8
20260505174211 61 268 8.0 12.0 0.00 0.00 0.00 84 1007.8
20260505173212 61 215 6.0 12.0 0.00 0.00 0.00 84 1007.7
20260505172211 61 194 4.0 10.0 0.00 0.00 0.00 84 1007.7
20260505171211 61 234 6.0 12.0 0.00 0.00 0.00 84 1007.6
20260505170211 61 200 6.0 12.0 0.00 0.00 0.00 84 1007.5
20260505165211 62 268 6.0 11.0 0.00 0.00 0.00 85 1007.6
20260505164211 62 219 6.0 13.0 0.00 0.00 0.00 85 1007.8
20260505163211 62 204 5.0 9.0 0.00 0.00 0.00 85 1007.7
20260505162210 62 183 6.0 12.0 0.00 0.00 0.00 85 1007.7
20260505161210 61 225 6.0 13.0 0.00 0.00 0.00 86 1007.6
20260505160210 62 216 5.0 10.0 0.00 0.00 0.00 86 1007.6
20260505153211 62 184 4.0 9.0 0.00 0.00 0.00 88 1007.6
20260505152211 62 174 4.0 10.0 0.00 0.00 0.00 86 1007.6
20260505151211 62 223 4.0 11.0 0.00 0.00 0.00 85 1007.8
20260505150210 62 213 3.0 6.0 0.00 0.00 0.00 83 1007.7
20260505140210 67 188 1.0 4.0 0.00 0.00 0.00 65 1007.5
20260505130210 69 272 1.0 6.0 0.00 0.00 0.00 66 1007.9
20260505124210 68 273 0.0 3.0 0.00 0.00 0.00 67 1008.0
20260505123210 68 205 4.0 7.0 0.00 0.00 0.00 69 1008.0
20260505122211 67 13 1.0 5.0 0.00 0.00 0.00 73 1008.1
20260505121319 65 190 2.0 6.0 0.00 0.00 0.00 79 1008.2
20260505121210 65 190 2.0 6.0 0.00 0.00 0.00 79 1008.2
20260505120210 63 75 2.0 3.0 0.00 0.00 0.00 83 1008.3
20260505115210 62 244 3.0 4.0 0.00 0.00 0.00 84 1008.4
20260505114210 62 284 2.0 4.0 0.00 0.00 0.00 85 1008.6
20260505113210 61 150 2.0 5.0 0.00 0.00 0.00 86 1008.7
20260505112210 61 179 2.0 4.0 0.00 0.00 0.00 87 1008.8
20260505111210 61 229 1.0 4.0 0.00 0.00 0.00 88 1008.8
20260505110210 61 266 1.0 4.0 0.00 0.00 0.00 89 1008.9
20260505102210 60 193 1.0 3.0 0.00 0.00 0.00 92 1009.0
20260505101210 60 270 3.0 4.0 0.00 0.00 0.00 93 1008.9
20260505100210 59 296 0.0 3.0 0.00 0.00 0.00 93 1008.9
20260505095210 59 180 2.0 5.0 0.00 0.00 0.00 93 1009.0
20260505094210 59 210 1.0 3.0 0.00 0.00 0.00 93 1009.0
20260505093211 59 240 1.0 4.0 0.00 0.00 0.00 93 1009.0
20260505092216 59 179 0.0 0.0 0.00 0.00 0.00 94 1009.0
20260505091215 59 232 0.0 3.0 0.00 0.00 0.00 94 1009.1
20260505090216 58 218 0.0 3.0 0.00 0.00 0.00 94 1009.1
20260505085216 58 222 1.0 4.0 0.00 0.00 0.00 94 1009.2
20260505084216 58 156 3.0 6.0 0.00 0.00 0.00 94 1009.2
20260505083215 58 269 3.0 7.0 0.00 0.00 0.00 94 1009.3
20260505082215 58 197 5.0 7.0 0.00 0.00 0.00 94 1009.4
20260505081215 58 233 2.0 6.0 0.00 0.00 0.00 94 1009.4
20260505080215 58 235 3.0 6.0 0.00 0.00 0.00 94 1009.5
20260505075215 57 258 2.0 5.0 0.00 0.00 0.00 94 1009.5
20260505074215 57 180 3.0 5.0 0.00 0.00 0.00 94 1009.5
20260505073215 57 219 3.0 6.0 0.00 0.00 0.00 94 1009.7
20260505072215 56 217 2.0 5.0 0.00 0.00 0.00 94 1009.7
20260505071215 56 209 3.0 6.0 0.00 0.00 0.00 94 1009.8
20260505070215 55 228 2.0 7.0 0.00 0.00 0.00 94 1009.8
20260505065215 55 247 2.0 6.0 0.00 0.00 0.00 94 1009.9
20260505064215 55 224 3.0 10.0 0.00 0.00 0.00 93 1009.9
20260505063215 55 200 3.0 6.0 0.00 0.00 0.00 93 1009.9
20260505062215 55 182 3.0 6.0 0.00 0.00 0.00 94 1009.9
20260505061215 54 230 2.0 5.0 0.00 0.00 0.00 93 1010.1
20260505060215 54 214 2.0 4.0 0.00 0.00 0.00 93 1010.0
20260505055215 54 202 2.0 4.0 0.00 0.00 0.00 93 1010.1
20260505054215 53 195 1.0 4.0 0.00 0.00 0.00 93 1010.1
20260505053215 53 185 1.0 4.0 0.00 0.00 0.00 93 1010.2
20260505052215 53 193 2.0 3.0 0.00 0.00 0.00 93 1010.1
20260505051215 53 253 0.0 2.0 0.00 0.00 0.00 93 1010.0
20260505050214 53 271 0.0 2.0 0.00 0.00 0.00 93 1010.1
20260505041215 53 279 0.0 0.0 0.00 0.00 0.00 93 1010.0
20260505040215 53 286 0.0 3.0 0.00 0.00 0.00 92 1010.1
20260505035215 53 266 0.0 3.0 0.00 0.00 0.00 92 1010.3
20260505034214 53 265 2.0 6.0 0.00 0.00 0.00 93 1010.2
20260505033215 52 269 0.0 0.0 0.00 0.00 0.00 92 1010.2
20260505032214 52 231 0.0 0.0 0.00 0.00 0.00 92 1010.1
20260505031214 52 203 0.0 0.0 0.00 0.00 0.00 92 1010.1
20260505030214 52 203 0.0 0.0 0.00 0.00 0.00 92 1010.2
20260505025215 53 180 0.0 0.0 0.00 0.00 0.00 92 1010.3
20260505024214 52 180 0.0 0.0 0.00 0.00 0.00 92 1010.3
20260505023214 52 180 0.0 0.0 0.00 0.00 0.00 92 1010.3
20260505022214 52 180 0.0 0.0 0.00 0.00 0.00 92 1010.4
20260505021214 52 172 0.0 0.0 0.00 0.00 0.00 92 1010.4
20260505020214 53 208 0.0 0.0 0.00 0.00 0.00 92 1010.6
20260505015215 53 208 0.0 0.0 0.00 0.00 0.00 91 1010.6
20260505014215 53 208 0.0 0.0 0.00 0.00 0.00 91 1010.7
20260505013215 53 208 0.0 0.0 0.00 0.00 0.00 91 1010.8
20260505012215 52 208 0.0 0.0 0.00 0.00 0.00 91 1011.0
20260505011215 52 208 0.0 0.0 0.00 0.00 0.00 91 1011.1
20260505010214 53 267 0.0 0.0 0.00 0.00 0.00 91 1011.3
20260505005215 53 267 0.0 0.0 0.00 0.00 0.00 91 1011.4
20260505004216 53 267 0.0 0.0 0.00 0.00 0.00 91 1011.5
20260505003215 53 267 0.0 0.0 0.00 0.00 0.00 90 1011.7
20260505002215 53 267 0.0 0.0 0.00 0.00 0.00 90 1011.8
20260505001214 53 267 0.0 0.0 0.00 0.00 0.00 90 1011.8
20260505000215 53 267 0.0 0.0 0.00 0.00 0.00 90 1011.9
20260504235215 53 231 0.0 0.0 0.00 0.00 0.00 90 1011.9
20260504234215 54 231 0.0 0.0 0.00 0.00 0.00 90 1012.1
20260504233215 54 231 0.0 0.0 0.00 0.00 0.00 90 1012.1
20260504232214 54 231 0.0 0.0 0.00 0.00 0.00 90 1012.2
20260504231214 54 255 0.0 0.0 0.00 0.00 0.00 89 1012.3
20260504230214 54 255 0.0 0.0 0.00 0.00 0.00 89 1012.3
20260504225216 54 255 0.0 0.0 0.00 0.00 0.00 89 1012.4
20260504224214 54 313 0.0 0.0 0.00 0.00 0.00 89 1012.3
20260504223214 54 268 0.0 0.0 0.00 0.00 0.00 89 1012.5
20260504222214 54 257 0.0 0.0 0.00 0.00 0.00 88 1012.6
20260504221214 54 257 0.0 0.0 0.00 0.00 0.00 88 1012.6
20260504220214 55 247 0.0 0.0 0.00 0.00 0.00 88 1012.5
20260504215214 55 101 0.0 0.0 0.00 0.00 0.00 88 1012.4
20260504214214 55 101 0.0 0.0 0.00 0.00 0.00 88 1012.5
20260504213214 55 154 0.0 0.0 0.00 0.00 0.00 88 1012.7
20260504212214 56 177 0.0 0.0 0.00 0.00 0.00 88 1012.8
20260504211214 56 177 0.0 0.0 0.00 0.00 0.00 88 1012.8
20260504210214 56 177 0.0 0.0 0.00 0.00 0.00 88 1013.1
20260504205214 56 177 0.0 0.0 0.00 0.00 0.00 87 1013.0
20260504204214 57 177 0.0 0.0 0.00 0.00 0.00 87 1013.1
20260504203214 57 177 0.0 0.0 0.00 0.00 0.00 87 1013.1
20260504202217 58 316 0.0 0.0 0.00 0.00 0.00 87 1013.1
20260504201213 58 298 0.0 0.0 0.00 0.00 0.00 87 1013.1
20260504200213 58 291 0.0 3.0 0.00 0.00 0.00 86 1013.1